Torna al catalogo

COSMOS 1275 DEB

AttivoPO
NORAD 12674·DEBRIS·🇷🇺 Russia

Lanciato Jun 4, 1981 da Plesetsk Cosmodrome

Loading…

Prossimi Passaggi (prossime 24 ore)

TLE

AggiornatoSource: Space-Track

Epoca: Sep 14, 2026, 10:11 UTC

1 12674U 81053AE  26257.42472583  .00000437  00000-0  42292-3 0  9990
2 12674  82.9344 300.1247 0101762  94.1608 280.7259 13.75212014252091

Traccia COSMOS 1275 DEB in tempo reale con AllMySat

Download on the App Store